TimeEST,TemperatureF,Dew PointF,Humidity,Sea Level PressureIn,VisibilityMPH,Wind Direction,Wind SpeedMPH,Gust SpeedMPH,PrecipitationIn,Events,Conditions,WindDirDegrees,DateUTC
12:15 AM,19.4,17.6,93,30.31,10.0,Calm,Calm,-,N/A,,Clear,0,2013-01-09 05:15:00
1:15 AM,19.4,17.6,93,30.32,10.0,Calm,Calm,-,N/A,,Clear,0,2013-01-09 06:15:00
1:35 AM,17.6,14.0,86,30.33,10.0,Calm,Calm,-,N/A,,Clear,0,2013-01-09 06:35:00
1:55 AM,19.4,17.6,93,30.33,10.0,Calm,Calm,-,N/A,,Clear,0,2013-01-09 06:55:00
2:15 AM,19.4,17.6,93,30.33,9.0,Calm,Calm,-,N/A,,Clear,0,2013-01-09 07:15:00
2:35 AM,17.6,14.0,86,30.33,7.0,Calm,Calm,-,N/A,,Clear,0,2013-01-09 07:35:00
2:55 AM,17.6,15.8,93,30.32,7.0,Calm,Calm,-,N/A,,Clear,0,2013-01-09 07:55:00
3:15 AM,17.6,15.8,93,30.32,5.0,NNE,3.5,-,N/A,,Clear,30,2013-01-09 08:15:00
3:35 AM,17.6,15.8,93,30.31,7.0,Calm,Calm,-,N/A,,Clear,0,2013-01-09 08:35:00
3:55 AM,15.8,14.0,93,30.31,7.0,Calm,Calm,-,N/A,,Clear,0,2013-01-09 08:55:00
4:15 AM,15.8,14.0,93,30.31,4.0,Calm,Calm,-,N/A,,Clear,0,2013-01-09 09:15:00
4:35 AM,15.8,14.0,93,30.30,4.0,Calm,Calm,-,N/A,,Clear,0,2013-01-09 09:35:00
4:55 AM,15.8,12.2,86,30.31,6.0,Calm,Calm,-,N/A,,Clear,0,2013-01-09 09:55:00
5:15 AM,17.6,15.8,93,30.31,5.0,Calm,Calm,-,N/A,,Clear,0,2013-01-09 10:15:00
5:35 AM,14.0,12.2,93,30.31,7.0,Calm,Calm,-,N/A,,Clear,0,2013-01-09 10:35:00
5:55 AM,14.0,12.2,93,30.32,5.0,Calm,Calm,-,N/A,,Clear,0,2013-01-09 10:55:00
6:15 AM,15.8,14.0,93,30.33,5.0,Calm,Calm,-,N/A,,Clear,0,2013-01-09 11:15:00
6:35 AM,15.8,14.0,93,30.34,4.0,Calm,Calm,-,N/A,,Clear,0,2013-01-09 11:35:00
6:55 AM,17.6,17.6,100,30.34,6.0,Calm,Calm,-,N/A,,Clear,0,2013-01-09 11:55:00
7:15 AM,15.8,14.0,93,30.36,5.0,Calm,Calm,-,N/A,,Clear,0,2013-01-09 12:15:00
7:35 AM,12.2,10.4,92,30.36,8.0,Calm,Calm,-,N/A,,Clear,0,2013-01-09 12:35:00
7:55 AM,14.0,12.2,93,30.35,6.0,Calm,Calm,-,N/A,,Clear,0,2013-01-09 12:55:00
8:15 AM,15.8,14.0,93,30.35,2.0,Calm,Calm,-,N/A,,Clear,0,2013-01-09 13:15:00
8:35 AM,14.0,12.2,93,30.34,8.0,Calm,Calm,-,N/A,,Clear,0,2013-01-09 13:35:00
8:55 AM,15.8,12.2,86,30.34,7.0,Calm,Calm,-,N/A,,Clear,0,2013-01-09 13:55:00
9:15 AM,17.6,17.6,100,30.34,7.0,SSW,3.5,-,N/A,,Clear,210,2013-01-09 14:15:00
9:35 AM,21.2,19.4,93,30.33,5.0,Calm,Calm,-,N/A,,Clear,0,2013-01-09 14:35:00
9:55 AM,21.2,19.4,93,30.33,8.0,Calm,Calm,-,N/A,,Clear,0,2013-01-09 14:55:00
10:15 AM,21.2,19.4,93,30.31,9.0,Calm,Calm,-,N/A,,Partly Cloudy,0,2013-01-09 15:15:00
10:35 AM,24.8,21.2,86,30.30,10.0,Calm,Calm,-,N/A,,Mostly Cloudy,0,2013-01-09 15:35:00
10:55 AM,26.6,21.2,80,30.28,10.0,Calm,Calm,-,N/A,,Overcast,0,2013-01-09 15:55:00
11:15 AM,26.6,21.2,80,30.25,10.0,Calm,Calm,-,N/A,,Overcast,0,2013-01-09 16:15:00
11:35 AM,26.6,21.2,80,30.23,10.0,Calm,Calm,-,N/A,,Overcast,0,2013-01-09 16:35:00
11:55 AM,28.4,21.2,74,30.22,10.0,Calm,Calm,-,N/A,,Overcast,0,2013-01-09 16:55:00
12:15 PM,30.2,23.0,75,30.21,10.0,SW,4.6,-,N/A,,Overcast,230,2013-01-09 17:15:00
12:35 PM,30.2,23.0,75,30.18,10.0,Calm,Calm,-,N/A,,Overcast,0,2013-01-09 17:35:00
12:55 PM,32.0,23.0,69,30.17,10.0,Calm,Calm,-,N/A,,Overcast,0,2013-01-09 17:55:00
1:15 PM,32.0,23.0,69,30.14,10.0,Calm,Calm,-,N/A,,Overcast,0,2013-01-09 18:15:00
1:35 PM,32.0,24.8,75,30.12,10.0,SSW,3.5,-,N/A,,Mostly Cloudy,210,2013-01-09 18:35:00
1:55 PM,32.0,23.0,69,30.09,10.0,Calm,Calm,-,N/A,,Mostly Cloudy,0,2013-01-09 18:55:00
2:15 PM,32.0,23.0,69,30.09,10.0,Calm,Calm,-,N/A,,Overcast,0,2013-01-09 19:15:00
2:35 PM,32.0,24.8,75,30.09,10.0,SW,5.8,-,N/A,,Overcast,230,2013-01-09 19:35:00
2:55 PM,33.8,26.6,75,30.09,10.0,Calm,Calm,-,N/A,,Mostly Cloudy,0,2013-01-09 19:55:00
3:15 PM,32.0,24.8,75,30.06,10.0,Calm,Calm,-,N/A,,Partly Cloudy,0,2013-01-09 20:15:00
3:35 PM,32.0,24.8,75,30.05,10.0,South,4.6,-,N/A,,Clear,180,2013-01-09 20:35:00
3:55 PM,32.0,24.8,75,30.03,10.0,South,3.5,-,N/A,,Clear,180,2013-01-09 20:55:00
4:15 PM,32.0,24.8,75,30.02,10.0,SSW,4.6,-,N/A,,Scattered Clouds,200,2013-01-09 21:15:00
4:35 PM,33.8,26.6,75,30.00,10.0,SSW,5.8,-,N/A,,Overcast,200,2013-01-09 21:35:00
4:55 PM,33.8,26.6,75,30.00,9.0,SSW,6.9,-,N/A,,Overcast,200,2013-01-09 21:55:00
5:15 PM,33.8,26.6,75,29.96,3.0,South,4.6,-,N/A,,Overcast,170,2013-01-09 22:15:00
5:35 PM,32.0,28.4,87,29.93,10.0,South,5.8,-,N/A,,Overcast,170,2013-01-09 22:35:00
6:15 PM,33.8,28.4,81,29.91,10.0,SSW,5.8,-,N/A,,Overcast,210,2013-01-09 23:15:00
6:35 PM,33.8,28.4,81,29.90,8.0,SSW,5.8,-,N/A,,Overcast,210,2013-01-09 23:35:00
6:55 PM,33.8,28.4,81,29.90,9.0,SW,4.6,-,N/A,,Overcast,220,2013-01-09 23:55:00
7:15 PM,33.8,28.4,81,29.88,10.0,SSW,4.6,-,N/A,,Overcast,200,2013-01-10 00:15:00
7:35 PM,33.8,28.4,81,29.86,10.0,SSW,4.6,-,N/A,,Overcast,200,2013-01-10 00:35:00
7:55 PM,32.0,28.4,87,29.86,10.0,SW,6.9,-,N/A,,Overcast,220,2013-01-10 00:55:00
8:15 PM,33.8,30.2,87,29.85,10.0,SSW,5.8,-,N/A,,Overcast,210,2013-01-10 01:15:00
8:35 PM,33.8,30.2,87,29.84,10.0,SSW,4.6,-,N/A,,Mostly Cloudy,200,2013-01-10 01:35:00
9:15 PM,33.8,28.4,81,29.82,10.0,SW,11.5,17.3,N/A,,Mostly Cloudy,220,2013-01-10 02:15:00
9:35 PM,33.8,28.4,81,29.82,10.0,WSW,8.1,-,N/A,,Clear,240,2013-01-10 02:35:00
9:55 PM,32.0,26.6,80,29.82,10.0,WSW,3.5,-,N/A,,Clear,250,2013-01-10 02:55:00
10:15 PM,30.2,26.6,86,29.82,10.0,SW,3.5,-,N/A,,Clear,220,2013-01-10 03:15:00
10:35 PM,28.4,24.8,86,29.82,10.0,Calm,Calm,-,N/A,,Clear,0,2013-01-10 03:35:00
10:55 PM,30.2,24.8,80,29.82,10.0,SSW,4.6,-,N/A,,Clear,210,2013-01-10 03:55:00
11:15 PM,28.4,24.8,86,29.81,9.0,South,4.6,-,N/A,,Clear,180,2013-01-10 04:15:00
11:35 PM,30.2,24.8,80,29.81,10.0,SSW,4.6,-,N/A,,Clear,200,2013-01-10 04:35:00
11:55 PM,28.4,24.8,86,29.82,10.0,SSE,4.6,-,N/A,,Clear,150,2013-01-10 04:55:00